Regional Weather Roundup
Issued by NWS

Home | Current Version | Previous Version | Text Only | Print | Product List | Glossary On
Versions: 1 2 3 4 5 6 7 8 9 10 11 12 13 14 15 16 17 18 19 20 21 22 23 24 25 26 27 28 29 30 31 32 33 34 35 36 37 38 39 40 41 42 43 44 45 46 47 48 49 50
000
ASUS43 KDTX 280401
RWRMI
MICHIGAN HOURLY REGIONAL WEATHER ROUNDUP
NATIONAL WEATHER SERVICE DETROIT/PONTIAC MI
1200 AM EDT THU JUL 28 2016

NOTE: "FAIR" INDICATES FEW OR NO CLOUDS BELOW 12,000 FEET WITH NO
SIGNIFICANT WEATHER AND/OR OBSTRUCTION TO VISIBILITY.

MIZ047>049-052>055-059>063-066>070-074>076-081>083-280500-
SOUTHEAST LOWER MICHIGAN

CITY           SKY/WX    TMP DP  RH WIND       PRES   REMARKS
ADRIAN         CLEAR     72  66  81 N6        29.96F
ALMA           FOG       66  66 100 CALM      29.97S VSB 1
ANN ARBOR      CLEAR     67  64  90 SW3       29.96S
BAD AXE        FOG       64  64  97 CALM      29.97R VSB 1
CARO           PTCLDY    65  64  98 CALM      29.96S
DETROIT CITY   CLEAR     75  69  81 SE6       29.95R
DETROIT        MOCLDY    79  64  60 CALM      29.95S
FLINT          MOCLDY    71  64  78 W3        29.97R
GROSSE ILE     CLEAR     76  65  70 N3        29.93F
HILLSDALE      CLEAR     66  63  89 CALM      29.98S
HOWELL         CLOUDY    69  64  84 CALM      29.97S

CITY           SKY/WX    TMP DP  RH WIND       PRES   REMARKS
JACKSON        CLEAR     69  64  84 CALM      29.97F
LAMBERTVILLE   CLEAR     73  66  80 CALM      29.95F
LANSING        CLOUDY    69  64  84 CALM      29.98R
LAPEER         FAIR      64  62  94 CALM      29.97S
MASON          CLEAR     66  62  87 CALM      29.97S
MONROE         CLEAR     71  67  88 CALM      29.94S
MT. CLEMENS    PTCLDY    73  67  82 SE3       29.92F
PONTIAC        PTCLDY    72  64  76 NW3       29.95F
PORT HOPE        N/A     67  66  97 SW3       29.95R
PORT HURON     PTCLDY    68  64  88 CALM      29.95R
TRI CITIES     CLEAR     69  68  96 CALM      29.97S
MIDLAND        FOG       67  66  99 CALM      29.95F VSB 1/2
TROY           PTCLDY    77  64  64 CALM      29.96F
SAGINAW HB     PTCLDY    64  64 100 SE3       29.96S
$$
MIZ043>046-050>051-056>058-064>065-071>073-077>080-280500-
SOUTHWEST LOWER MICHIGAN

CITY           SKY/WX    TMP DP  RH WIND       PRES   REMARKS
BATTLE CREEK   CLEAR     67  64  90 W3        29.98S
BENTON HARBOR  CLEAR     70  65  84 CALM      29.96R
BIG RAPIDS     FOG       69  69 100 CALM      29.97S VSB 3/4
COLDWATER      CLEAR     68  65  92 CALM      29.98S
FREMONT        FAIR      71  71 100 CALM      29.96S
HOLLAND        CLEAR     71  66  84 CALM      29.96S
GRAND RAPIDS   MOCLDY    70  63  78 SE6       29.97S
IONIA          FAIR      67  62  83 CALM      29.97S
KALAMAZOO      CLEAR     70  64  81 CALM      29.97S
LUDINGTON      PTCLDY    69  66  92 CALM      29.95S
MARSHALL       CLEAR     68  66  92 CALM      29.97S
MOUNT PLEASANT MOCLDY    67  67  99 CALM      29.96S FOG
MUSKEGON       PTCLDY    74  71  91 CALM      29.95S
SOUTH HAVEN    CLEAR     67  66  96 CALM      29.95F
$$
MIZ016>042-280500-
NORTHERN LOWER MICHIGAN

CITY           SKY/WX    TMP DP  RH WIND       PRES   REMARKS
ALPENA         PTCLDY    69  66  90 CALM      29.96R
BEAVER ISLAND  PTCLDY    66  58  75 N3        29.99S
BELLAIRE       CLOUDY    69  66  90 CALM      29.96S
CADILLAC       PTCLDY    68  65  90 CALM      29.98S
CHARLEVOIX     PTCLDY    71  59  66 N6        30.00R
FRANKFORT      CLOUDY    71  66  83 CALM      29.95S
GAYLORD        CLOUDY    71  60  68 NE7       29.98F
GRAYLING       MOCLDY    71  66  84 N3        29.98F
HARBOR SPRINGS CLOUDY    69  56  63 NE3       29.98R
HOUGHTON LAKE  CLOUDY    71  67  87 CALM      29.98S
MANISTEE       CLOUDY    70  64  81 CALM      29.96R
OSCODA         MOCLDY    66  65  97 CALM      29.95S
PELLSTON       CLOUDY    66  56  70 CALM      29.98R
ROGERS CITY    CLOUDY    68  60  75 CALM      29.98R
TRAVERSE CITY  PTCLDY    74  67  78 N6        29.94S
$$
MIZ007>008-015-280500-
EASTERN UPPER MICHIGAN

CITY           SKY/WX    TMP DP  RH WIND       PRES   REMARKS
KINROSS        CLOUDY    62  57  83 NW9       29.98F
MACKINAC ISLAN CLOUDY    65  58  79 N7        29.97S
S. S. MARIE    CLOUDY    62  56  80 W7        29.97S
$$
MIZ004>006-011>014-085-280500-
CENTRAL UPPER MICHIGAN

CITY           SKY/WX    TMP DP  RH WIND       PRES   REMARKS
MANISTIQUE     CLOUDY    62  58  87 N8        29.99R
ESCANABA       CLOUDY    64  55  72 N5        29.99R
MENOMINEE      RAIN     N/A N/A N/A N5        30.02
SAWYER-GWINN   LGT RAIN  59  58  94 NW3       30.04R
$$
MIZ001>003-009>011-084-280500-
WESTERN UPPER MICHIGAN

CITY           SKY/WX    TMP DP  RH WIND       PRES   REMARKS
IRON MOUNTAIN  LGT RAIN  62  59  90 CALM      30.02F
HOUGHTON       CLOUDY    61  57  87 SW3       30.03S
COPPER HARBOR    N/A     60  55  83 W5        30.02R
IRONWOOD       CLOUDY    63  61  94 E6        30.02S
$$

ABBREVIATIONS USED IN REMARKS
   TC - TEMPERATURE IN CELSIUS
  WCI - WIND CHILL INDEX
   HX - HEAT INDEX
  VSB - VISIBILITY




USA.gov is the U.S. government's official web portal to all federal, state and local government web resources and services.